Weather History for Greenwood, SC

Change the Weather History Date:

Sunday, February 10, 2013

  Actual Average (KAND) Record (KAND)
Temperature  
Mean Temperature 48 °F -  
Max Temperature 62 °F 53 °F 75 °F (1954)
Min Temperature 35 °F 31 °F 12 °F (1971)
Degree Days  
Heating Degree Days 16    
Moisture  
Dew Point 39 °F    
Average Humidity 70    
Maximum Humidity 100    
Minimum Humidity 42    
Precipitation  
Precipitation 0.37 in - - ()
Sea Level Pressure  
Sea Level Pressure 30.30 in    
Wind  
Wind Speed 4 mph (East)    
Max Wind Speed 12 mph    
Max Gust Speed 17 mph    
Visibility 8 miles    
Events Rain    
Averages and records for this station are not official NWS values.
T = Trace of Precipitation, MM = Missing Value Source: NWS Daily Summary

Daily Weather History Graph

Daily Weather History Graph

Search for Another Location

Airport:

Trip Planner

Search our weather history database for the weather conditions in past years. The results will help you decide how hot, cold, wet, or windy it might be!

Date:

Astronomy

Feb. 10, 2013 Rise Set
Actual Time 7:18 AM EST 6:07 PM EST
Civil Twilight 6:52 AM EST 6:33 PM EST
Nautical Twilight 6:22 AM EST 7:03 PM EST
Astronomical Twilight 5:53 AM EST 7:32 PM EST
Moon 7:10 AM EST (2/10) 6:52 PM EST (2/10)
Length of Visible Light 11h 41m
Length of Day
10h 49m
New Moon, 0% of the Moon is Illuminated
Feb 10
New Moon
Feb 17
First Quarter
Feb 25
Full
Mar 4
Last Quarter
Mar 11
New

Hourly Weather History & Observations

Time (EST) Temp. Windchill Dew Point Humidity Pressure Visibility Wind Dir Wind Speed Gust Speed Precip Events Conditions
12:56 AM 41.0 °F 39.0 °F 28.0 °F 60% 30.33 in 10.0 mi ESE 3.5 mph - N/A   Clear
1:56 AM 43.0 °F 40.3 °F 25.0 °F 49% 30.33 in 10.0 mi ESE 4.6 mph - N/A   Clear
2:56 AM 37.9 °F - 26.1 °F 62% 30.35 in 10.0 mi Calm Calm - N/A   Clear
3:56 AM 35.1 °F - 28.0 °F 76% 30.34 in 10.0 mi Calm Calm - N/A   Clear
4:56 AM 39.0 °F - 30.0 °F 70% 30.34 in 10.0 mi Calm Calm - N/A   Clear
5:56 AM 37.0 °F - 30.9 °F 79% 30.38 in 10.0 mi Calm Calm - N/A   Clear
6:56 AM 36.0 °F - 30.0 °F 79% 30.39 in 10.0 mi Calm Calm - N/A   Clear
7:56 AM 37.0 °F 34.5 °F 28.9 °F 73% 30.40 in 10.0 mi ENE 3.5 mph - N/A   Clear
8:56 AM 39.9 °F 37.8 °F 30.0 °F 68% 30.40 in 10.0 mi East 3.5 mph - N/A   Clear
9:56 AM 45.0 °F 42.6 °F 32.0 °F 60% 30.40 in 10.0 mi East 4.6 mph - N/A   Clear
10:56 AM 50.0 °F - 34.0 °F 54% 30.43 in 10.0 mi Variable 4.6 mph - N/A   Clear
11:56 AM 55.0 °F - 33.1 °F 43% 30.40 in 10.0 mi SE 9.2 mph - N/A   Partly Cloudy
12:56 PM 57.0 °F - 34.0 °F 42% 30.34 in 10.0 mi East 5.8 mph - N/A   Clear
1:56 PM 59.0 °F - 37.0 °F 44% 30.27 in 10.0 mi ESE 11.5 mph 17.3 mph N/A   Partly Cloudy
2:56 PM 60.1 °F - 39.9 °F 47% 30.25 in 10.0 mi ESE 6.9 mph - N/A   Partly Cloudy
3:56 PM 62.1 °F - 43.0 °F 50% 30.24 in 10.0 mi ESE 8.1 mph - N/A   Partly Cloudy
4:56 PM 60.1 °F - 43.0 °F 53% 30.21 in 10.0 mi East 4.6 mph - N/A   Overcast
5:56 PM 57.0 °F - 43.0 °F 59% 30.19 in 10.0 mi NE 4.6 mph - N/A   Overcast
6:56 PM 57.0 °F - 45.0 °F 64% 30.17 in 10.0 mi ENE 3.5 mph - N/A   Overcast
7:56 PM 54.0 °F - 48.0 °F 80% 30.22 in 10.0 mi North 5.8 mph - 0.00 in Rain Light Rain
8:56 PM 51.1 °F - 48.9 °F 92% 30.26 in 5.0 mi North 8.1 mph - 0.08 in Rain Rain
9:56 PM 51.1 °F - 50.0 °F 96% 30.25 in 4.0 mi ENE 4.6 mph - 0.13 in Rain Rain
10:28 PM 51.8 °F - 50.0 °F 94% 30.24 in 5.0 mi ENE 3.5 mph - 0.06 in Rain Rain
10:46 PM 51.8 °F - 50.0 °F 94% 30.24 in 4.0 mi Calm Calm - 0.09 in Rain Rain
10:56 PM 51.1 °F - 51.1 °F 100% 30.24 in 4.0 mi Calm Calm - 0.10 in Rain Rain
11:43 PM 51.8 °F - 51.8 °F 100% 30.22 in 4.0 mi ESE 4.6 mph - 0.05 in Rain Light Rain
11:56 PM 51.1 °F - 51.1 °F 100% 30.21 in 4.0 mi SE 3.5 mph - 0.06 in Rain Light Rain